SCP
0 0 0 0 0 0 0 0 0 0 0 0 0 0 0 0 0 0 0 0 0 0 0 0 0 0 0 0 0 0 0 0 0 0 0 0 0 0 0 0 0 0 0
0 0 0 0 0 0 0 0 0 0 0 0 0 0 0 0 0 0 0 0 0 0 0 0 0 0 0 0 0 0 0 0 0 0 0 0 0 0 0 0 0 0 0
0 0 0 0 0 0 0 0 0 0 0 0 0 0 0 0 0 0 0 0 0 0 0 0 0 0 0 0 0 0 0 0 0 0 0 0 0 0 0 0 0 0 0
0 0 0 0 0 0 0 0 0 0 0 0 0 0 0 0 0 0 0 0 0 0 0 0 0 0 0 0 0 0 0 0 0 0 0 0 0 0 0 0 0 0 0
0 0 0 0 0 0 0 0 0 0 0 0 0 0 0 0 0 0 0 0 0 0 0 0 0 0 0 0 0 0 0 0 0 0 0 0 0 0 0 0 0 0 0
0 0 0 0 0 0 0 0 0 0 0 0 0 0 0 0 0 0 0 0 0 0 0 0 0 0 0 0 0 0 0 0 0 0 0 0 0 0 0 0 0 0 0
0 0 0 0 0 0 0 0 0 0 0 0 0 0 0 0 0 0 0 0 0 0 0 0 0 0 0 0 0 0 0 0 0 0 0 0 0 0 0 0 0 0 0
0 0 0 0 0 0 0 0 0 0 0 0 0 0 0 0 0 0 0 0 0 0 0 0 0 0 0 0 0 0 0 0 0 0 0 0 0 0 0 0 0 0 0
0 0 0 0 0 0 0 0 0 0 0 0 0 0 0 0 0 0 0 0 0 0 0 0 0 0 0 0 0 0 0 0 0 0 0 0 0 0 0 0 0 0 0
0 0 0 0 0 0 0 0 0 0 0 0 0 0 0 0 0 0 0 0 0 0 0 0 0 0 0 0 0 0 0 0 0 0 0 0 0 0 0 0 0 0 0
0 0 0 0 0 0 0 0 0 0 0 0 0 0 0 0 0 0 0 0 0 0 0 0 0 0 0 0 0 0 0 0 0 0 0 0 0 0 0 0 0 0 0
0 0 0 0 0 0 0 0 0 0 0 0 0 0 0 0 0 0 0 0 0 0 0 0 0 0 0 0 0 0 0 0 0 0 0 0 0 0 0 0 0 0 0
0 0 0 0 0 0 0 0 0 0 0 0 0 0 0 0 0 0 0 0 0 0 0 0 0 0 0 0 0 0 0 0 0 0 0 0 0 0 0 0 0 0 0
0 1 1 1 1 0 0 0 0 0 0 0 0 0 0 0 0 0 0 0 0 0 0 0 0 0 0 0 0 0 0 0 0 0 0 0 0 0 0 0 0 0 0
0 1 1 1 1 1 1 0 0 0 0 0 0 0 0 0 0 0 0 0 0 0 0 0 0 0 0 0 0 0 0 0 0 0 0 0 0 0 0 0 0 0 0
0 1 1 1 1 1 1 1 0 0 0 0 0 0 0 0 0 0 0 0 0 0 0 0 0 0 0 0 0 0 0 0 0 0 0 0 0 0 0 0 0 0 0
0 1 1 1 1 1 1 1 1 0 0 0 0 0 0 0 0 0 0 0 0 0 0 0 0 0 0 0 0 0 0 0 0 0 0 0 0 0 0 0 0 0 0
0 0 1 1 1 1 1 1 0 0 0 0 0 0 0 0 0 0 0 0 0 0 0 0 0 0 0 0 0 0 0 0 0 0 0 0 0 0 0 0 0 0 0
0 0 1 1 1 1 1 1 0 0 0 0 0 0 0 0 0 0 0 0 0 0 0 0 0 0 0 0 0 0 0 0 0 0 0 0 0 0 0 0 0 0 0
0 0 1 1 1 1 1 1 1 0 0 0 0 0 0 0 0 0 0 0 0 0 0 0 0 0 0 0 0 0 0 0 0 0 0 0 0 0 0 0 0 0 0
0 0 1 1 1 1 1 1 1 0 0 0 0 0 0 0 0 0 0 0 0 0 0 0 0 0 0 0 0 0 0 0 0 0 0 0 0 0 0 0 0 0 0
0 0 0 1 1 1 1 1 0 0 0 0 0 0 0 0 0 0 0 0 0 0 0 0 0 0 0 0 0 0 0 0 0 0 0 0 0 0 0 0 0 0 0
0 0 0 1 1 1 1 1 0 0 0 0 0 0 0 0 0 0 0 0 0 0 0 0 0 0 0 0 0 0 0 0 0 0 0 0 0 0 0 0 0 0 0
0 0 0 0 0 1 1 1 1 0 0 0 0 0 0 0 0 0 0 0 0 0 0 0 0 0 0 0 0 0 0 0 0 0 0 0 0 0 0 0 0 0 0
0 0 0 0 0 0 1 1 1 0 0 0 0 0 0 0 0 0 0 0 0 0 0 0 0 0 0 0 0 0 0 0 0 0 0 0 0 0 0 0 0 0 0
0 0 0 0 0 0 1 1 1 0 0 0 0 0 0 0 0 0 0 0 0 0 0 0 0 0 0 0 0 0 0 0 0 0 0 0 0 0 0 0 0 0 0
Wind_Speed
9 11 10 11 11 11 12 12 13 12 12 13 13 13 13 13 14 14 14 15 15 16 16 16 16 16 16 16 16 16 16 15 16 16 16 16 16 16 16 15 14 10 17
13 12 10 10 11 12 12 12 12 12 12 12 12 12 12 12 13 13 14 14 14 14 15 15 15 15 15 15 14 14 13 12 11 11 13 13 14 15 16 15 14 11 17
13 13 10 10 11 12 12 11 12 12 12 12 12 11 11 12 12 13 13 13 13 13 14 14 14 14 13 13 13 12 10 8 7 6 7 6 9 14 15 15 15 16 16
12 12 11 11 11 12 11 11 11 11 12 11 11 11 11 11 11 12 12 12 12 13 13 13 13 12 12 12 11 10 8 7 8 6 5 6 7 13 14 15 15 15 15
10 11 12 11 11 12 11 11 11 11 11 11 11 10 10 10 10 10 11 11 11 11 12 12 12 11 11 10 9 8 6 8 9 6 6 6 5 11 13 13 13 13 13
9 11 11 11 11 11 11 11 11 11 11 11 10 10 10 10 9 9 10 10 10 11 11 11 10 10 9 9 8 6 7 9 6 5 6 6 5 10 12 12 12 12 12
9 10 11 10 10 10 11 11 11 11 11 10 10 10 10 9 9 9 9 10 9 10 10 9 9 9 8 7 6 6 8 11 4 5 6 6 6 10 10 10 11 11 11
9 10 10 9 9 9 9 10 10 10 10 10 10 10 9 9 8 8 8 9 9 8 8 8 8 8 7 6 5 5 8 8 5 6 6 5 7 8 9 9 10 10 10
8 8 9 7 8 8 8 9 9 9 9 9 9 9 8 7 7 7 6 7 8 8 7 7 7 6 6 5 4 4 7 8 4 3 6 4 6 7 7 8 8 8 8
7 7 8 8 8 7 6 8 9 9 9 9 8 8 8 7 7 6 5 5 7 7 7 6 6 5 4 3 1 3 6 8 1 4 4 4 5 5 6 6 7 6 7
5 5 6 7 7 8 8 9 8 8 9 9 8 9 8 5 5 4 5 6 6 6 6 6 5 4 4 3 2 4 6 2 2 3 4 4 4 4 4 5 5 5 5
6 6 5 6 6 7 7 7 5 6 6 6 6 6 5 4 4 5 7 7 6 6 6 5 5 4 4 3 4 4 2 2 0 3 3 4 3 2 2 3 3 3 4
7 6 5 5 6 5 4 6 4 4 5 6 7 7 5 3 3 4 3 4 4 5 4 4 4 4 4 3 3 3 2 1 0 2 3 4 2 1 1 2 3 3 3
9 9 7 6 5 5 5 4 4 4 4 4 5 7 4 3 3 3 3 4 4 3 4 4 4 5 4 2 2 1 1 1 0 1 3 4 3 3 3 3 4 4 4
9 9 9 7 6 5 5 4 4 4 5 5 5 5 5 4 4 4 3 4 4 4 4 4 4 4 4 3 3 3 3 2 1 1 2 5 5 6 6 6 6 6 6
9 9 9 9 8 7 5 5 4 4 4 5 5 6 6 5 4 4 4 4 4 4 4 4 5 4 3 3 4 4 4 3 3 3 3 5 7 8 8 8 8 8 8
9 9 9 10 9 8 7 7 5 5 4 4 5 7 7 6 6 5 4 4 4 4 4 3 4 3 3 3 4 5 4 4 4 4 4 3 5 8 10 11 11 11 10
9 10 10 9 10 10 8 7 5 5 6 5 5 5 8 8 7 5 5 5 5 4 4 3 3 3 3 3 4 4 4 4 6 5 5 5 4 4 8 12 13 13 13
11 11 11 11 10 10 9 7 6 6 6 5 5 6 7 8 8 6 5 5 6 5 4 4 4 4 4 4 4 4 4 4 5 6 6 7 6 5 5 9 13 13 14
10 10 11 12 11 10 8 6 6 6 6 6 6 7 8 8 9 7 6 7 6 5 5 5 5 5 4 4 4 4 4 5 5 6 7 6 6 7 7 6 6 9 14
9 9 11 11 12 10 9 9 9 9 7 6 7 8 9 9 10 9 6 7 7 6 7 7 6 6 5 3 2 3 4 7 8 7 7 6 7 7 7 7 6 6 6
10 10 10 11 12 12 10 10 7 7 6 7 6 8 10 10 10 10 10 8 8 7 8 8 7 5 5 5 4 2 3 4 7 9 7 7 8 6 7 8 7 7 6
10 11 10 11 12 13 11 7 6 6 5 7 9 10 12 12 11 10 11 10 9 9 9 10 9 9 7 6 6 5 4 5 3 4 7 7 7 6 6 6 8 8 8
10 9 10 10 11 11 12 10 11 11 12 12 9 8 10 12 13 13 12 12 11 9 10 10 11 9 8 7 5 7 6 4 2 3 3 4 6 7 7 6 7 8 8
7 8 8 9 9 10 11 13 13 12 11 7 7 9 10 11 13 14 13 13 12 11 11 10 10 11 10 9 7 5 7 7 6 4 5 4 4 5 7 7 6 6 8
4 5 6 7 8 8 10 12 13 14 12 10 10 10 9 9 10 14 14 13 13 12 12 12 11 12 11 11 9 7 6 5 6 7 9 7 5 5 6 6 7 7 7
Wind_Direction
116 121 128 128 123 120 117 115 110 107 103 99 96 95 94 93 92 90 88 87 85 84 83 81 80 78 76 75 74 73 72 73 73 73 72 69 67 65 63 63 62 56 62
119 124 129 128 125 122 119 118 115 112 108 104 101 99 98 97 95 93 92 90 89 87 85 84 83 81 79 77 76 75 74 73 72 75 77 70 68 69 66 63 64 65 63
119 126 131 127 126 124 122 120 118 116 112 108 105 104 102 101 99 97 95 95 94 92 91 88 86 84 82 80 77 75 71 57 39 39 73 80 70 70 68 66 64 62 61
125 134 132 128 129 129 127 126 123 119 116 113 111 108 106 104 102 100 99 99 98 97 95 93 90 88 85 82 79 73 57 28 13 29 71 71 68 70 70 67 63 62 62
125 124 126 132 133 134 132 130 128 124 122 119 116 114 111 108 104 103 102 102 101 101 99 96 94 92 88 84 78 65 32 5 358 41 74 74 68 75 73 68 65 65 65
121 121 130 135 137 139 139 137 133 131 128 125 122 120 116 112 108 105 102 104 103 102 101 100 97 95 90 83 73 45 9 356 355 67 72 71 68 76 75 72 69 70 70
124 125 135 136 140 143 146 144 141 138 135 131 129 126 123 119 115 112 109 109 106 105 105 103 101 98 93 83 65 26 1 351 38 73 75 68 67 75 76 73 74 73 74
128 129 135 138 143 145 147 150 147 144 140 137 135 132 131 129 126 122 119 117 115 113 112 110 108 105 99 86 61 16 353 351 23 72 81 71 67 74 78 79 77 76 78
132 135 142 150 150 147 148 150 148 146 143 141 139 135 131 130 129 125 123 128 128 125 122 120 118 115 108 93 59 0 340 343 357 65 83 72 64 74 83 85 82 81 86
136 147 155 160 161 159 155 154 150 148 145 143 137 133 130 128 127 128 132 137 140 137 135 134 132 130 120 110 65 327 321 322 359 76 81 74 69 78 88 92 91 87 92
152 166 165 164 167 165 165 159 153 150 149 144 140 145 147 159 156 158 161 144 143 142 146 149 150 146 146 163 212 276 303 305 51 82 84 88 82 91 96 100 102 98 102
179 182 176 170 170 168 163 153 165 165 160 169 161 166 191 189 165 158 143 144 144 146 154 165 173 179 197 199 219 245 268 279 15 107 111 113 98 104 117 121 124 122 122
187 188 187 180 169 168 152 161 172 172 170 188 174 180 197 174 142 138 139 142 150 161 174 179 190 219 222 209 193 210 232 299 19 110 128 134 134 167 176 167 160 163 159
188 190 192 189 177 177 168 174 172 170 171 184 178 180 180 167 172 171 167 172 178 187 194 185 204 221 219 221 235 242 245 263 235 122 149 163 190 226 230 217 197 195 194
191 188 187 191 192 184 181 181 180 179 177 182 176 181 178 175 185 187 182 181 184 187 190 196 209 210 209 216 220 229 242 250 248 218 169 189 206 226 235 235 224 218 216
194 191 185 189 196 190 188 188 189 189 187 186 178 183 187 186 187 187 187 187 195 195 190 194 208 204 206 211 219 223 227 234 233 229 210 201 213 222 233 237 236 232 226
192 191 189 189 194 197 197 195 194 196 192 194 186 186 188 194 193 187 188 189 199 201 198 196 212 205 208 211 218 222 221 228 233 229 228 214 210 219 227 235 238 237 236
188 190 191 188 193 199 202 200 197 199 197 196 194 191 193 196 196 190 190 193 193 193 190 192 205 208 218 218 221 224 216 217 228 229 228 228 220 211 220 229 236 238 238
188 188 190 189 193 197 201 204 205 203 204 199 197 197 199 198 199 195 194 195 190 191 191 194 199 202 213 220 224 227 221 219 222 225 226 228 226 220 213 221 225 231 237
189 188 189 190 193 193 197 206 213 214 211 206 205 204 201 201 200 199 198 198 192 190 194 196 202 206 210 212 227 235 233 232 227 224 227 227 225 223 220 219 216 226 232
188 191 192 193 193 191 195 201 207 214 212 211 212 209 207 204 200 201 202 200 199 197 197 197 196 207 215 204 222 263 257 239 233 229 224 224 225 223 219 220 215 214 224
194 197 200 199 195 195 199 201 204 205 212 216 215 218 216 212 205 203 205 204 202 202 201 201 199 201 208 190 182 206 273 275 240 229 220 220 224 219 220 220 218 217 215
199 201 205 206 203 199 196 191 194 201 211 214 216 217 216 215 214 209 208 207 206 205 209 207 203 202 209 205 191 183 205 239 273 244 222 219 218 219 223 221 222 222 219
204 203 205 208 207 202 193 196 198 204 213 216 214 214 210 211 216 215 213 212 213 212 212 210 209 208 204 210 209 215 219 210 237 291 270 232 222 223 225 224 224 225 221
201 200 205 207 209 205 200 200 204 215 220 218 212 213 212 211 213 214 214 215 217 218 218 214 211 212 212 213 209 202 223 238 234 239 264 258 243 236 228 225 225 224 223
198 194 200 205 213 211 208 207 208 216 218 217 217 217 215 212 211 212 213 215 218 220 221 219 217 216 217 218 217 211 200 205 211 220 240 247 245 237 226 225 224 225 225